This is the latest recevied weather packets stored in our database for station/object DL4MGC-10. If no packets are shown the sender has not sent any weather packets the latest 10 day(s).
| Time | Temp. | Humidity | Pressure | Rain* | Wind** | Luminosity | Snow |
|---|---|---|---|---|---|---|---|
| 1787871370 | 22.22° C | 89% | 1011.8 hPa | - | - | - | - |
| 1787870470 | 22.78° C | 89% | 1012 hPa | - | - | - | - |
| 1787869569 | 22.78° C | 86% | 1012.1 hPa | - | - | - | - |
| 1787868669 | 23.33° C | 86% | 1012.1 hPa | - | - | - | - |
| 1787867769 | 23.33° C | 85% | 1012.2 hPa | - | - | - | - |
| 1787866869 | 23.33° C | 86% | 1012.1 hPa | - | - | - | - |
| 1787865969 | 23.89° C | 81% | 1012.4 hPa | - | - | - | - |
| 1787865069 | 23.89° C | 84% | 1012.2 hPa | - | - | - | - |
| 1787864169 | 23.33° C | 85% | 1012.1 hPa | - | - | - | - |
| 1787863269 | 23.33° C | 86% | 1012.3 hPa | - | - | - | - |
| 1787862369 | 23.33° C | 87% | 1012.4 hPa | - | - | - | - |
| 1787861469 | 23.89° C | 85% | 1012.7 hPa | - | - | - | - |
| 1787860568 | 23.89° C | 85% | 1012.8 hPa | - | - | - | - |
| 1787859668 | 24.44° C | 84% | 1012.9 hPa | - | - | - | - |
| 1787858768 | 25° C | 81% | 1013 hPa | - | - | - | - |
| 1787857868 | 25° C | 81% | 1012.8 hPa | - | - | - | - |
| 1787856968 | 25.56° C | 78% | 1013 hPa | - | - | - | - |
| 1787856068 | 25.56° C | 78% | 1012.7 hPa | - | - | - | - |
| 1787855168 | 26.11° C | 77% | 1012.9 hPa | - | - | - | - |
| 1787854268 | 26.67° C | 72% | 1012.8 hPa | - | - | - | - |
| 1787853368 | 27.22° C | 70% | 1012.7 hPa | - | - | - | - |
| 1787852467 | 27.22° C | 69% | 1012.7 hPa | - | - | - | - |
| 1787851567 | 27.78° C | 66% | 1012.8 hPa | - | - | - | - |
| 1787850667 | 28.33° C | 64% | 1012.7 hPa | - | - | - | - |
| 1787849767 | 28.33° C | 64% | 1012.6 hPa | - | - | - | - |
* Rain since midnight (hover to see other rain measurements)
** Current wind speed in m/s (hover to see current wind gust speed)